RH
42 40 38 37 34 31 28 25 23 20 18 16 13 12 10 10 12 14 18 22 25 26 25 24 22 19 16 13 11 9 8 9 12 16 18 19 22 22 30 58 77 81 88 86 73 69 78 89 83 65 58 42 14 3 5 3 4 5 5 5 4 6 10 12 14 16 14 13 11 8 6 4 3 4
44 41 38 36 33 30 27 25 23 20 18 17 15 13 11 9 9 9 11 15 20 23 23 23 23 21 19 16 13 11 9 8 8 12 16 17 20 20 21 44 72 81 88 90 74 64 75 88 89 77 64 47 19 4 5 5 4 5 5 4 4 5 9 12 13 16 15 13 12 9 6 5 3 3
43 40 38 34 32 30 28 25 22 19 16 15 13 12 11 9 8 8 7 9 14 17 19 20 21 21 21 18 16 13 10 8 8 9 14 15 16 19 17 32 63 81 87 93 81 65 71 86 93 88 74 57 31 7 3 5 3 5 5 4 4 4 7 11 13 15 17 14 12 11 7 5 4 4
42 39 36 33 32 30 28 23 19 16 14 12 11 10 9 9 8 7 6 6 10 14 15 16 18 18 19 19 17 15 11 9 8 7 11 14 14 17 17 22 52 79 85 91 89 75 70 77 86 90 80 64 41 14 3 5 4 4 5 4 4 4 6 10 12 14 17 16 14 12 9 7 4 4
40 37 34 33 33 30 24 19 16 14 13 12 11 10 9 9 8 7 6 5 6 10 12 13 14 15 16 18 17 16 14 10 9 8 8 11 12 15 17 17 40 75 85 85 90 83 71 68 75 85 83 66 44 21 5 4 5 4 5 5 4 4 6 9 12 13 16 17 15 13 11 8 6 4
38 35 33 31 28 24 19 16 15 14 13 12 12 12 12 11 11 9 7 5 4 6 9 10 11 13 13 14 16 16 15 12 10 8 7 9 11 12 16 15 28 67 88 84 86 86 73 64 69 83 89 74 50 28 9 4 5 4 4 5 4 4 5 8 11 13 15 18 17 15 13 10 7 5
33 30 27 24 21 18 16 14 13 12 13 13 13 14 15 14 13 12 9 7 5 5 7 8 8 10 10 12 13 14 15 13 11 9 7 7 9 10 15 15 19 53 87 88 85 87 73 64 72 85 93 83 58 34 14 4 5 5 4 5 4 4 5 7 10 12 14 18 18 17 15 12 9 7
26 23 21 19 17 15 14 13 12 12 13 15 15 15 16 15 14 14 13 11 8 5 7 8 7 8 9 9 11 12 13 13 11 10 7 6 9 9 13 17 16 37 77 92 88 87 74 65 76 90 96 89 65 39 20 7 4 5 4 4 5 4 4 6 9 11 13 16 19 18 17 15 12 9
22 21 20 18 16 14 14 12 11 12 12 14 16 16 17 17 16 16 16 14 12 9 7 9 8 8 8 7 9 10 11 12 11 10 8 6 7 9 11 16 16 24 59 89 92 87 76 66 72 87 95 88 67 45 27 10 4 5 5 4 5 4 4 6 8 10 12 15 19 20 19 17 15 12
22 21 19 17 15 12 11 10 8 8 10 13 17 19 20 21 20 19 18 17 17 14 11 11 10 8 7 6 7 8 9 11 10 9 9 6 6 8 9 14 15 16 39 76 92 88 79 68 63 73 87 86 67 50 36 17 4 5 5 4 5 4 3 5 7 9 12 14 17 20 20 20 17 15
20 18 16 13 11 8 7 7 6 7 9 14 20 24 26 28 27 24 21 21 21 20 18 16 13 9 6 4 5 7 7 9 9 8 8 7 6 7 9 11 15 15 25 57 86 92 85 78 67 63 77 87 73 54 43 25 7 4 6 4 4 5 3 4 7 9 11 13 16 19 21 21 20 17
15 12 11 9 8 8 7 7 7 7 11 19 27 33 35 36 36 31 26 24 23 23 22 18 14 11 7 3 3 5 6 7 8 8 7 7 6 6 9 11 14 19 24 41 74 93 90 89 85 72 73 88 84 63 48 33 13 4 6 5 3 5 4 4 6 8 10 12 15 18 21 22 22 20
12 11 11 11 11 12 11 10 10 13 22 32 38 42 43 41 39 35 29 27 25 24 22 17 12 10 7 3 2 3 5 5 6 7 6 7 6 5 8 11 12 21 28 33 59 92 97 93 95 88 80 87 91 73 53 38 21 6 5 6 4 4 4 3 5 8 10 12 14 16 20 22 24 23
17 16 15 15 15 15 15 17 21 27 36 42 43 43 42 39 37 34 30 27 25 21 18 13 10 8 5 2 2 2 3 4 5 7 5 5 6 5 7 11 11 17 26 28 47 84 102 96 92 93 88 87 92 83 60 43 29 12 5 6 5 4 4 4 5 7 9 11 13 15 18 22 24 25
21 20 19 20 20 20 23 27 31 33 35 37 37 35 33 31 30 28 25 23 21 16 13 10 7 5 3 2 2 2 2 3 4 5 5 4 5 5 5 9 12 15 20 24 36 71 100 100 89 88 85 84 91 92 71 50 37 21 7 5 6 4 4 4 4 7 9 11 12 14 17 21 23 25
21 22 23 25 27 29 32 33 31 28 26 26 25 23 22 21 20 20 19 17 15 11 9 6 4 4 3 2 2 2 2 3 3 4 5 3 4 6 5 7 12 16 19 20 29 59 91 100 91 84 76 73 85 94 81 59 43 29 13 6 6 5 4 4 4 6 9 10 12 14 16 19 22 24
24 27 29 32 33 33 32 29 25 23 20 18 17 16 16 15 15 15 14 12 10 7 6 5 5 5 4 3 3 3 3 3 2 3 4 3 3 4 5 7 11 15 20 24 29 48 79 97 93 80 69 67 77 90 87 68 50 36 21 9 7 6 4 4 4 5 8 11 12 13 15 17 21 23
30 34 35 34 33 30 27 25 22 20 18 15 14 14 13 12 11 10 9 8 7 6 6 7 7 8 8 6 4 4 4 4 3 2 3 3 3 4 4 6 10 12 17 27 32 39 65 90 92 80 72 72 77 84 89 80 61 44 28 13 7 6 5 4 4 5 7 11 12 13 14 16 19 22
36 37 36 33 30 27 23 21 18 16 14 12 11 10 9 9 8 7 8 8 8 8 8 8 8 9 10 9 7 6 6 4 3 2 3 3 2 3 4 5 9 12 15 24 31 35 53 78 89 86 82 81 80 79 83 85 74 55 38 20 8 6 6 4 5 5 7 10 12 13 14 16 18 21
40 38 34 29 24 21 18 16 13 11 10 9 8 8 8 9 9 10 10 10 9 9 8 8 8 8 9 10 9 8 7 6 5 2 2 3 2 2 4 4 8 13 17 23 29 33 46 67 85 92 92 88 83 74 75 84 82 66 47 26 9 6 7 5 5 5 6 10 12 13 14 15 17 19
41 34 27 21 18 15 13 11 9 8 8 7 9 10 10 11 12 11 11 11 12 14 14 13 13 10 9 9 9 9 8 7 6 3 2 3 2 2 3 4 7 13 19 26 31 33 42 62 82 95 99 98 89 74 71 82 83 70 54 31 11 7 8 5 5 5 6 10 12 13 15 16 16 18
32 23 18 15 13 10 9 8 7 8 9 10 12 12 13 13 11 11 13 17 20 22 20 18 17 14 11 10 9 9 9 8 6 4 3 3 3 2 2 3 6 12 18 27 35 37 42 61 85 98 99 100 92 75 71 82 82 72 59 36 13 7 9 6 5 5 6 9 13 14 15 16 17 17
20 15 12 10 8 7 8 9 10 12 13 14 14 13 13 11 11 15 20 24 29 32 27 22 19 15 11 11 10 8 9 9 7 5 4 4 3 2 2 2 4 10 19 28 36 39 45 64 90 101 98 100 95 79 74 83 82 73 61 37 14 8 9 8 6 6 7 9 12 15 17 17 18 17
14 12 10 8 8 10 11 12 14 15 14 14 13 12 12 12 16 23 27 29 37 44 41 32 22 13 11 13 11 8 11 14 10 5 4 4 3 2 2 2 3 8 19 29 34 38 48 69 93 101 98 101 100 89 84 87 84 78 64 38 15 9 9 9 7 5 7 10 12 15 18 18 19 18
12 10 9 10 12 13 13 13 13 12 12 13 13 15 18 20 23 28 29 34 44 52 53 44 25 11 12 14 10 12 22 25 16 7 4 5 4 3 2 2 3 6 18 30 34 35 49 75 96 100 98 101 101 95 93 91 88 85 71 41 16 10 9 9 8 6 7 10 12 15 18 19 20 19
11 11 12 13 13 13 13 13 14 15 18 21 23 27 29 28 29 30 30 37 46 51 56 51 29 10 10 14 16 25 36 36 24 11 5 5 4 3 3 2 2 5 17 30 33 33 48 77 97 100 99 102 100 95 94 91 89 91 80 48 20 10 10 10 8 6 8 12 13 15 18 20 21 20
12 12 12 12 14 17 20 24 29 32 34 34 34 36 36 34 34 35 34 40 47 52 59 55 31 11 11 19 29 40 44 41 33 18 7 6 5 4 3 3 2 5 16 30 33 31 45 76 97 100 99 101 99 94 94 93 91 93 86 60 29 12 9 11 9 6 9 14 15 16 17 19 21 21
12 13 17 22 28 33 37 39 40 39 38 38 38 40 41 39 39 39 39 44 51 57 64 58 32 15 18 29 38 46 48 47 40 25 11 7 5 4 4 3 2 4 15 31 35 30 42 74 97 100 99 101 100 95 95 95 94 92 88 69 39 16 9 11 10 6 8 13 15 15 16 19 21 21
21 27 34 40 45 47 47 45 44 42 40 40 39 40 41 41 40 39 41 47 53 57 65 62 39 19 23 34 39 41 44 46 43 31 17 9 5 5 4 3 2 3 14 31 37 32 44 75 97 100 98 101 101 97 94 95 94 93 90 76 47 20 10 11 11 7 8 12 15 17 18 19 20 21
45 48 50 52 53 53 54 53 52 51 51 51 49 45 43 41 41 39 39 44 51 56 63 68 51 27 23 35 41 39 36 39 42 37 24 12 6 5 4 3 2 3 13 31 39 39 53 80 98 99 99 100 101 99 96 94 93 94 94 85 58 26 11 11 11 8 8 13 18 20 20 20 20 21
69 65 63 61 60 60 61 62 61 60 60 60 59 56 52 46 44 44 41 40 44 50 58 68 65 46 30 30 36 38 33 32 37 40 32 18 8 5 5 4 2 3 12 30 40 41 56 83 98 98 99 101 100 99 96 92 91 94 97 92 70 36 14 11 12 9 9 15 20 21 21 22 23 24
78 73 70 69 68 68 67 67 67 66 64 63 62 62 61 56 51 49 46 40 38 41 47 57 66 64 51 37 31 32 33 31 32 36 37 26 11 5 6 4 3 3 12 30 40 39 53 84 100 98 99 102 101 100 97 91 90 96 98 94 78 47 19 11 12 10 10 14 19 20 21 23 26 27
76 74 75 74 74 73 71 68 66 65 63 62 61 59 59 58 56 54 51 45 39 39 42 46 53 62 64 55 41 31 28 30 29 31 36 32 16 6 5 5 3 3 12 29 39 38 53 86 102 97 98 102 100 101 100 91 89 97 99 92 79 55 27 13 12 11 9 11 15 19 21 22 24 25
78 79 81 82 80 78 73 68 64 61 60 58 57 57 57 56 54 53 52 50 46 43 44 46 47 52 59 62 57 43 30 26 28 29 34 35 23 8 5 6 4 3 12 30 40 40 56 87 102 97 98 103 100 98 98 90 87 96 100 92 80 61 36 17 12 12 10 9 12 16 19 20 21 22
65 63 61 58 57 55 50 45 42 39 38 37 39 44 50 54 57 55 51 50 49 47 47 50 51 51 52 55 59 55 41 29 26 28 34 37 27 10 4 6 5 3 12 31 43 44 57 85 100 97 98 103 99 92 91 87 85 92 98 93 83 69 48 25 14 12 11 9 10 13 15 17 19 20
35 33 29 27 29 31 30 30 29 27 26 24 25 28 33 42 54 60 57 52 51 49 48 50 53 53 52 51 53 56 50 40 31 30 37 39 28 11 5 6 5 4 15 34 47 48 59 84 100 98 97 103 99 89 84 85 86 89 91 88 84 78 63 38 19 13 12 11 9 11 14 17 18 21
24 25 29 33 38 42 42 43 43 42 40 37 34 31 28 30 40 55 63 59 53 50 48 48 51 52 50 49 49 51 52 48 40 36 41 41 26 11 6 6 4 6 20 40 50 49 60 85 99 95 95 102 99 88 84 90 92 88 83 79 77 78 73 54 31 17 13 12 11 11 15 19 20 22
36 47 58 65 70 72 72 71 69 66 63 61 55 49 44 36 31 39 55 59 54 50 49 48 49 50 47 46 46 46 49 53 49 44 43 39 24 10 6 5 4 8 26 47 53 49 60 85 97 93 96 103 97 85 85 94 96 88 82 79 75 74 74 64 44 24 15 13 12 12 14 17 19 21
63 74 80 81 81 82 81 79 77 73 70 71 70 65 64 59 43 32 39 51 53 51 50 49 50 50 47 45 44 43 49 56 53 44 39 33 20 9 7 5 4 10 29 49 52 49 61 86 97 95 97 101 97 89 90 97 99 94 92 91 87 82 82 75 56 34 21 15 14 15 14 15 17 19
83 85 84 81 80 80 80 78 74 69 65 68 70 66 65 70 65 45 32 38 48 50 50 52 53 51 48 46 42 42 50 56 51 42 38 30 16 7 7 6 3 10 30 47 49 49 66 90 100 97 97 100 100 99 99 101 99 95 93 94 95 96 96 87 66 44 28 20 16 17 16 15 17 18
91 93 96 94 91 86 83 83 83 82 81 81 82 76 65 65 72 63 40 33 42 47 49 56 59 53 49 47 43 43 51 53 48 42 37 26 13 7 7 6 4 10 30 46 47 51 72 95 102 98 97 99 101 101 100 98 94 87 83 86 92 98 100 93 75 53 39 30 25 22 20 18 18 19
96 100 97 94 91 86 82 83 86 90 93 92 94 96 84 70 72 72 53 38 39 43 49 61 64 56 50 49 45 46 51 50 46 42 34 20 10 7 7 6 4 12 31 47 49 55 76 97 101 97 96 99 102 101 97 92 86 81 79 80 85 93 99 98 85 67 53 47 43 38 32 28 26 25
94 94 86 81 86 85 85 89 91 90 93 94 97 102 93 73 66 68 58 44 39 40 49 63 64 54 50 51 48 48 51 49 45 42 29 13 7 7 6 4 5 16 36 50 54 62 82 98 100 97 97 101 102 99 96 92 87 84 80 79 83 92 99 100 94 81 69 64 64 62 57 50 42 36
93 92 84 83 89 92 94 99 98 93 95 99 96 89 74 56 53 62 59 46 40 41 50 61 60 52 51 54 52 50 50 49 46 39 23 9 6 8 6 4 8 22 41 53 57 70 89 100 99 96 98 101 100 96 96 98 96 89 84 84 89 96 99 99 99 93 84 78 79 80 79 74 67 60
98 103 99 94 95 96 99 103 100 97 100 98 82 64 50 42 49 61 57 44 40 45 52 57 56 53 55 57 54 51 50 50 45 32 15 6 8 8 5 6 14 29 46 55 60 75 93 100 99 97 99 101 100 96 96 101 100 93 89 91 94 96 98 100 101 100 97 93 91 89 88 87 85 83
Wind_Speed
51 50 50 49 48 47 48 49 48 48 48 48 49 50 51 51 49 46 42 37 35 36 38 39 40 42 40 35 32 31 31 32 32 31 30 28 26 24 23 22 22 22 21 21 21 21 20 18 16 18 20 19 20 23 21 18 16 12 9 7 4 4 4 4 5 6 6 7 10 13 17 20 22 23
50 50 49 49 49 49 49 49 49 49 50 50 50 51 52 53 53 51 48 42 36 36 38 40 41 42 42 39 35 32 32 32 33 33 32 31 29 26 24 24 23 22 21 22 23 23 21 19 18 18 20 20 20 23 23 20 17 14 11 9 6 4 4 3 4 5 5 5 7 10 13 17 20 22
50 51 51 51 52 51 49 49 50 51 52 52 52 52 53 53 54 54 53 49 42 38 38 40 42 43 43 42 39 35 34 33 33 34 34 33 31 28 26 25 24 23 22 23 24 24 22 21 19 19 20 20 21 23 25 22 19 16 13 11 8 5 5 4 3 4 4 3 4 7 10 14 17 20
52 53 53 53 52 51 49 50 51 52 53 53 54 54 53 53 54 54 55 53 48 42 40 39 41 44 45 44 42 38 36 35 33 34 35 35 33 31 28 26 26 24 24 25 26 25 23 21 21 20 20 21 21 22 25 24 21 18 15 13 9 7 6 5 4 3 4 2 2 4 8 11 14 17
54 54 53 52 51 51 51 52 53 53 53 53 53 53 53 53 54 54 55 55 52 46 44 42 40 43 46 45 44 42 39 37 35 34 36 37 36 34 31 28 26 26 26 26 27 26 24 22 22 21 21 22 22 22 26 26 22 20 17 15 12 9 7 6 5 4 4 3 1 2 5 8 11 14
52 52 51 50 51 53 54 54 53 53 52 52 51 52 52 53 54 54 54 55 54 49 46 45 43 42 45 47 46 45 42 40 37 35 36 38 37 36 33 30 27 27 27 27 27 27 26 24 23 23 22 23 23 23 26 27 24 21 19 17 14 11 9 8 7 6 6 4 3 1 2 5 8 10
50 50 50 51 53 54 54 53 52 51 51 51 50 50 51 52 53 54 54 54 55 51 46 46 46 44 44 47 48 48 45 43 40 37 37 39 39 38 36 33 29 28 28 29 28 28 28 26 25 25 24 24 24 24 26 28 26 23 22 19 16 13 11 10 9 8 7 6 4 3 2 3 5 7
49 50 50 51 52 52 51 50 50 50 50 50 51 51 52 52 52 53 54 54 55 54 49 45 46 46 45 46 49 50 48 46 43 40 38 39 40 40 39 36 32 30 29 30 30 29 29 28 26 25 24 24 24 24 25 28 28 25 23 21 18 15 13 12 11 10 9 8 6 5 4 3 4 5
51 50 50 51 51 51 50 50 51 51 52 52 53 54 54 53 52 52 54 54 54 55 52 47 45 47 47 47 49 51 51 49 46 43 41 40 41 42 41 39 36 33 31 31 31 31 30 29 28 25 24 24 25 25 25 27 28 27 25 23 20 17 15 13 12 12 11 10 8 6 5 4 4 4
52 52 52 52 52 51 51 52 53 54 55 56 55 56 56 55 54 53 53 55 55 54 53 49 46 47 48 48 50 52 54 52 50 47 44 42 43 44 43 42 40 36 33 33 33 33 31 30 29 27 25 25 26 26 26 27 29 29 27 25 22 19 17 15 14 13 12 11 10 8 7 6 5 4
54 54 53 53 52 53 53 54 56 58 58 58 58 58 58 57 56 55 54 54 55 55 53 50 48 48 49 49 51 53 55 55 53 50 48 45 45 45 45 45 43 39 36 34 35 35 34 32 31 30 28 27 27 28 28 27 29 30 29 27 24 21 19 17 16 15 14 13 12 10 9 8 7 6
55 55 54 54 54 54 55 56 58 60 60 60 59 59 59 58 57 57 56 54 55 56 56 53 50 50 51 51 52 53 55 56 55 54 51 48 47 48 48 48 46 42 38 36 36 36 37 35 33 32 31 29 28 29 29 29 29 31 30 29 26 24 21 19 18 17 16 15 14 12 11 9 8 7
55 56 56 56 55 55 56 58 59 60 60 60 59 58 58 57 56 56 57 56 55 57 59 58 54 53 53 53 53 53 54 56 57 56 55 52 50 50 50 50 49 45 41 38 37 37 37 37 36 34 33 31 29 30 31 30 29 31 31 30 28 26 24 21 20 18 17 17 16 14 12 11 10 9
56 57 57 57 57 56 56 57 57 58 58 58 58 57 57 57 57 57 57 58 58 58 60 61 59 56 55 55 55 54 54 56 58 58 57 55 53 52 52 52 51 49 44 40 38 37 38 38 38 36 34 32 31 31 31 31 30 31 32 32 31 28 26 24 22 20 19 18 17 16 14 13 11 10
57 57 57 57 56 55 53 52 52 54 55 56 56 57 57 58 59 60 60 61 61 61 61 62 62 59 56 56 56 55 53 55 58 59 59 57 56 55 54 54 53 52 47 42 40 39 39 39 39 37 35 33 32 31 32 32 32 32 33 33 32 31 28 26 24 22 21 20 19 18 16 14 13 11
56 56 56 56 54 52 51 51 53 54 56 58 59 60 60 61 62 63 63 63 63 63 63 63 62 59 57 56 57 55 53 54 57 59 59 59 58 57 57 56 55 54 50 45 43 42 41 40 40 38 36 35 34 33 33 34 34 34 33 33 33 32 30 28 26 24 22 22 21 20 18 16 15 13
55 55 55 54 53 53 54 56 57 58 59 60 62 63 63 64 65 66 66 65 64 64 64 62 58 56 55 55 55 55 54 53 56 58 59 59 60 59 59 58 57 56 52 47 45 44 43 41 39 38 37 37 36 35 35 35 35 34 34 33 34 34 33 30 28 26 24 23 22 21 20 18 17 15
55 55 56 56 56 57 59 60 62 63 63 64 65 66 67 67 67 66 65 63 62 61 60 58 54 52 52 53 54 55 55 54 55 57 58 59 60 61 61 60 59 58 56 50 47 46 44 41 40 39 39 39 39 38 36 36 35 35 34 34 34 35 34 33 30 28 26 25 24 23 21 20 18 17
56 57 59 59 60 61 62 64 65 66 67 67 68 68 67 66 64 62 59 58 57 57 57 56 54 52 52 51 52 54 55 54 55 57 58 59 60 62 62 62 61 60 58 54 49 47 45 43 42 42 41 41 41 40 38 37 36 36 35 35 34 35 35 34 32 30 28 27 26 24 23 21 20 19
59 60 61 61 61 63 65 66 68 69 69 68 67 65 62 59 57 55 54 54 55 55 54 53 52 53 53 51 50 53 55 54 55 57 58 58 60 62 63 63 63 62 60 56 51 48 46 45 44 43 42 42 42 41 40 38 38 37 36 35 35 35 35 36 34 31 30 29 28 26 24 23 22 20
61 61 62 62 63 65 66 67 68 68 67 65 62 59 56 54 52 52 52 52 51 48 45 44 45 47 51 53 52 53 54 54 55 57 58 57 60 63 64 65 64 63 61 57 53 49 47 46 45 44 44 43 43 43 41 40 39 38 37 36 36 35 35 36 35 33 32 31 29 28 26 25 23 22
62 61 62 64 65 66 66 66 65 64 62 60 57 55 53 52 51 51 50 48 45 42 40 40 40 43 47 52 53 53 53 53 55 57 57 57 60 63 65 65 65 65 62 59 55 51 49 46 44 45 47 46 45 45 43 41 41 40 38 37 37 35 35 35 36 35 33 32 31 29 28 26 25 23
62 63 64 65 65 64 63 61 59 57 57 56 54 53 53 52 50 49 47 45 43 41 40 40 41 42 45 50 53 53 52 52 53 56 57 58 60 63 65 66 66 66 63 60 57 52 49 47 44 44 47 48 47 46 44 42 42 41 39 38 37 36 35 35 36 36 34 33 33 31 29 28 26 25
63 64 65 64 62 60 58 56 55 54 55 55 54 54 54 52 48 47 46 45 43 42 41 42 42 41 43 49 52 52 51 50 51 55 57 58 60 63 65 66 67 66 63 61 59 54 50 49 46 43 45 48 47 46 45 43 42 42 40 39 38 37 35 34 36 36 34 33 33 33 31 30 28 26
65 65 63 60 58 57 56 55 55 55 55 56 55 55 53 49 47 47 47 46 45 44 43 43 42 39 41 47 50 49 48 47 48 53 57 59 60 63 65 66 67 66 63 62 62 56 52 52 48 43 44 47 47 46 45 43 43 42 40 40 39 38 36 35 35 36 34 33 34 34 33 31 29 27
64 61 59 57 56 57 57 57 57 57 56 56 55 53 50 48 47 48 48 47 46 46 46 45 41 39 41 46 47 46 46 45 45 50 56 59 61 63 65 66 67 66 64 64 63 58 55 55 50 44 44 46 47 48 47 45 44 43 42 41 40 39 37 36 36 36 34 33 34 35 34 33 31 29
60 58 58 57 58 58 58 58 58 57 57 56 54 52 50 49 49 50 50 49 48 48 48 46 42 38 40 43 44 43 44 43 43 47 53 59 61 63 66 67 67 65 64 65 64 59 57 57 51 44 44 47 48 49 47 45 45 44 42 40 40 40 39 37 37 37 36 34 35 36 36 35 32 30
59 59 59 59 59 60 59 59 59 58 58 57 55 54 53 52 52 53 52 51 50 49 49 47 43 39 40 42 42 42 42 42 43 44 50 57 61 63 66 68 67 66 65 66 64 61 60 59 52 44 45 49 50 50 48 45 44 44 43 42 41 40 40 38 37 38 37 36 36 36 36 35 33 31
62 62 62 62 62 63 63 62 62 60 59 59 58 57 57 57 57 57 56 54 52 50 49 48 46 44 43 43 44 43 42 42 43 44 46 54 60 64 66 68 68 67 66 67 65 62 62 60 52 45 47 51 52 51 49 46 44 44 44 43 42 41 41 40 38 38 38 37 36 36 36 35 34 33
65 65 66 66 66 66 66 65 64 63 62 61 61 61 62 62 61 61 59 57 54 52 50 49 48 49 49 48 47 47 45 43 44 44 45 50 58 64 66 68 68 68 68 68 66 63 63 61 53 47 48 52 54 53 51 48 47 45 45 44 43 43 43 42 40 39 39 37 37 37 36 36 35 35
68 68 68 69 69 68 67 66 66 65 64 64 64 63 64 65 65 64 63 61 58 56 54 51 50 53 55 54 52 51 48 46 44 45 45 48 56 63 66 67 68 68 69 69 68 65 64 62 55 48 47 52 56 56 53 50 48 47 47 46 44 43 43 43 41 40 40 40 39 39 37 36 35 34
68 68 69 69 68 68 67 66 66 66 66 66 66 66 66 67 67 66 66 65 63 61 59 56 54 54 57 59 58 55 53 49 47 46 46 48 53 62 67 68 68 69 70 71 70 68 65 62 57 50 47 52 57 58 54 52 51 49 49 49 47 45 45 45 44 43 43 43 42 40 38 37 35 35
66 66 66 66 65 66 66 66 66 66 66 66 66 66 67 68 69 69 68 67 66 65 64 62 59 57 57 60 62 62 58 54 50 49 48 48 52 61 67 68 68 69 71 72 71 69 66 63 58 52 48 51 58 58 55 54 53 51 51 52 51 48 47 46 46 45 45 44 43 42 40 38 37 36
62 62 62 63 63 65 66 67 67 68 68 68 68 67 67 67 68 69 69 69 69 69 68 65 63 61 60 60 63 66 64 59 56 53 51 50 53 60 67 68 68 69 72 73 71 70 68 64 59 53 48 52 59 59 55 55 54 52 52 52 52 51 50 49 47 46 44 44 44 43 42 40 39 38
60 61 61 62 62 63 65 65 66 66 67 68 68 69 69 68 67 67 68 69 70 71 70 68 66 64 62 61 63 66 67 65 61 58 55 53 55 61 67 69 68 70 73 74 72 71 70 65 60 54 50 54 60 60 57 56 56 55 54 54 53 53 52 51 50 47 45 45 45 43 42 41 39 38
57 57 57 55 55 56 56 57 57 58 59 59 60 62 64 66 67 66 66 67 69 70 70 69 67 65 63 63 64 66 67 68 66 62 58 56 56 62 68 69 69 71 74 74 72 72 71 66 59 53 51 56 62 62 59 57 57 57 57 56 55 54 52 50 50 49 47 46 44 42 41 40 39 38
48 46 44 43 44 46 48 49 51 52 53 54 54 55 56 58 61 63 64 64 66 68 69 68 67 67 65 64 65 66 67 67 66 64 60 58 58 63 68 70 70 72 74 74 73 73 72 67 58 51 51 57 62 62 59 57 57 58 58 55 54 54 52 50 49 47 46 44 44 42 42 41 40 39
37 35 36 37 40 43 45 47 48 49 50 52 53 53 53 53 55 58 62 63 63 64 67 67 66 66 65 64 65 67 67 66 66 64 62 60 60 64 69 71 72 73 74 74 73 74 74 67 56 50 52 58 62 62 60 58 57 56 55 53 51 51 51 49 48 46 45 43 43 43 43 43 42 41
32 33 35 38 39 41 43 45 45 45 45 46 47 49 51 53 54 55 59 62 62 62 64 65 65 65 64 63 65 67 67 66 65 63 61 60 61 65 69 72 73 74 75 74 74 76 74 64 54 50 52 55 59 61 59 56 53 51 50 49 48 48 47 46 45 46 45 45 44 44 43 42 42 41
31 34 36 38 40 41 43 44 45 46 45 43 43 44 47 50 53 54 57 60 62 61 61 63 65 64 62 62 65 67 67 66 65 63 62 61 62 66 70 72 74 75 75 75 76 77 72 60 52 50 49 50 56 60 58 54 52 51 50 49 48 47 46 45 45 45 45 46 46 45 44 42 42 41
30 32 33 36 38 38 38 39 40 42 43 43 44 44 45 47 50 52 55 58 61 61 60 61 64 63 61 62 64 66 67 67 65 64 63 62 64 67 70 73 75 76 76 76 76 76 71 61 53 49 47 48 55 60 59 56 53 51 50 49 48 47 47 48 48 47 46 46 47 46 45 44 43 41
26 27 29 31 32 33 33 32 32 34 37 39 42 45 46 46 48 51 54 57 60 61 59 59 61 61 60 61 64 66 68 67 65 64 63 63 66 69 72 75 76 76 76 76 75 75 71 62 52 47 46 49 56 61 60 56 53 50 50 51 50 49 50 51 51 50 48 46 45 44 44 43 42 40
23 25 27 28 30 31 32 31 29 31 34 34 36 40 44 46 48 51 54 57 59 59 57 56 59 60 59 60 64 67 68 67 65 64 63 65 67 70 73 76 77 76 76 76 74 74 70 60 49 45 45 50 58 62 60 55 53 53 52 52 52 52 52 52 52 50 48 46 44 43 42 42 40 38
23 25 27 28 30 32 32 29 28 29 29 28 28 31 37 43 47 49 52 57 59 57 54 54 57 58 57 60 64 67 67 66 65 63 64 66 69 71 74 76 76 75 76 75 75 74 68 56 45 42 45 51 59 63 59 56 56 55 54 53 53 53 53 52 51 50 48 46 45 43 42 41 40 38
22 24 26 27 29 30 28 26 24 23 21 20 21 23 29 38 44 47 52 57 58 55 52 54 56 56 57 60 65 67 67 66 64 64 65 68 70 72 74 76 75 75 76 76 76 75 68 54 42 40 47 56 61 61 58 57 57 55 54 53 52 52 52 51 50 49 48 47 45 44 42 41 40 39
Wind_Direction
294 295 295 295 296 296 296 296 296 295 294 293 292 290 288 286 285 284 282 279 276 274 273 271 271 273 272 268 264 262 260 259 261 262 264 265 265 266 267 264 254 245 240 240 243 247 249 248 246 237 229 226 220 214 214 215 214 216 227 241 264 287 297 320 331 336 349 8 22 27 25 25 30 33
293 293 293 294 294 293 293 293 294 294 294 293 292 290 288 286 284 282 281 278 274 271 272 272 271 270 271 270 266 262 258 256 257 258 259 261 262 262 264 264 257 245 237 236 239 242 244 243 242 237 230 226 221 215 214 215 212 212 220 230 243 260 270 285 312 323 335 0 22 32 31 27 30 35
291 291 291 292 291 290 290 291 291 292 292 292 291 289 287 286 283 281 279 277 274 270 268 269 270 270 269 269 267 263 258 255 253 254 256 257 259 259 260 261 257 246 237 235 238 240 241 241 240 237 231 229 223 216 214 214 210 209 216 223 231 240 247 253 274 301 316 344 20 35 38 33 32 36
288 289 289 288 288 287 287 288 289 289 289 289 289 287 286 284 282 281 278 276 274 271 268 265 266 268 268 267 266 263 259 255 251 250 253 254 256 256 255 256 256 248 238 235 238 240 240 240 240 237 231 230 227 219 216 214 209 209 214 218 224 231 233 235 241 266 287 305 8 37 46 41 35 37
286 286 286 285 284 284 285 286 287 287 286 286 286 285 284 283 282 280 279 276 273 271 268 264 261 262 265 265 265 263 260 256 251 247 248 251 252 253 252 251 253 248 240 236 237 239 239 238 239 238 231 227 228 223 218 216 210 208 212 215 219 226 226 223 225 238 259 267 277 45 56 53 44 40
284 284 284 283 283 283 285 285 285 285 284 283 283 282 281 281 281 280 279 277 274 270 267 265 260 257 259 261 262 261 259 256 252 246 244 246 248 250 250 248 248 247 241 236 236 237 237 235 235 236 231 225 225 224 220 217 211 208 212 213 215 222 223 218 217 224 238 245 235 199 80 71 58 48
282 283 283 283 282 283 283 284 283 283 282 281 280 279 278 278 278 277 277 277 276 272 267 265 262 257 255 255 257 258 257 255 252 246 242 243 244 246 248 246 245 244 241 236 233 233 234 233 231 231 229 223 220 222 221 218 212 209 211 212 212 218 221 217 213 216 225 233 229 214 174 100 81 63
281 282 282 281 281 282 282 283 283 282 281 280 278 276 275 274 272 271 272 273 274 273 269 265 263 259 255 252 252 253 254 252 250 246 241 239 241 243 245 245 242 241 240 236 232 230 231 233 232 230 228 222 217 219 221 218 214 211 211 211 210 215 219 217 213 212 219 225 223 216 206 162 114 90
282 282 281 281 281 281 282 282 282 282 281 278 276 274 272 270 266 264 266 268 270 270 269 267 265 262 258 253 249 249 249 249 247 245 240 237 237 239 241 242 240 237 237 236 231 226 227 231 233 231 229 224 219 218 221 220 215 212 212 210 209 213 217 218 213 210 214 219 219 216 213 199 159 125
282 282 282 282 282 282 283 283 283 282 280 277 274 272 270 267 262 260 262 265 267 268 268 268 268 266 262 256 250 247 246 245 244 242 239 235 234 236 238 239 239 235 234 235 231 225 224 227 230 230 228 225 221 219 220 220 216 214 213 211 210 211 215 217 214 210 211 216 217 214 214 210 192 161
283 283 282 282 283 284 285 285 284 282 279 276 273 270 268 266 262 259 259 262 266 269 269 269 270 270 267 260 253 248 244 242 241 239 237 233 231 232 234 236 237 235 231 232 232 227 223 224 226 228 226 223 220 218 219 218 216 215 214 212 210 211 214 216 215 211 210 213 216 213 212 214 207 187
282 282 283 283 284 285 286 287 285 281 277 274 271 269 268 266 263 260 260 261 264 267 270 271 271 271 269 263 255 249 245 242 239 236 234 231 229 229 231 233 235 234 231 230 232 229 225 223 223 225 225 223 220 218 217 217 215 215 215 213 211 210 212 215 214 211 210 211 214 213 210 212 212 203
282 283 283 284 285 286 287 287 283 277 274 272 270 269 268 266 264 262 262 263 264 266 269 271 271 270 268 263 256 250 245 242 239 235 232 229 227 227 228 230 232 232 229 228 230 230 227 224 222 222 222 222 220 218 216 215 214 215 216 214 212 210 211 214 214 211 210 211 212 212 210 209 211 208
284 284 284 284 285 286 287 284 279 274 272 271 270 269 269 268 267 267 266 267 267 267 270 271 271 269 265 260 255 250 245 241 239 235 231 227 224 224 225 227 230 231 228 226 228 229 227 224 221 221 222 220 219 218 216 214 214 215 216 215 213 210 210 213 214 212 210 211 211 211 209 208 208 208
287 287 285 285 284 284 282 279 275 273 273 273 272 272 271 271 271 270 270 270 270 270 270 271 271 268 262 256 252 249 244 240 238 235 230 226 223 222 223 224 227 229 227 224 225 227 226 223 220 220 221 221 219 218 216 213 212 214 215 215 214 211 210 211 213 212 210 210 211 211 209 207 207 207
288 286 284 282 280 277 276 274 274 274 274 274 274 274 273 273 272 272 272 272 271 271 270 270 268 264 258 252 249 247 242 238 236 234 231 226 222 220 221 222 225 227 226 223 223 224 224 222 219 218 219 220 220 219 217 215 213 212 214 215 214 213 211 211 212 212 211 210 210 211 209 206 205 205
284 282 279 277 275 274 274 275 275 275 274 274 274 273 273 272 272 272 273 272 271 270 268 266 262 258 253 248 245 243 240 235 233 232 230 226 221 219 219 221 223 225 224 222 222 223 222 221 219 217 218 220 220 220 219 217 214 213 213 214 215 214 212 211 212 212 211 210 210 210 210 207 204 204
279 277 275 275 275 275 276 276 276 275 274 273 272 272 272 272 272 273 273 271 269 266 263 260 256 253 250 246 242 240 238 234 230 229 228 225 222 219 218 219 220 222 222 220 220 220 220 219 217 216 217 219 220 219 219 218 216 214 213 213 215 215 212 211 211 211 211 210 210 210 210 208 205 203
275 274 274 276 277 277 277 276 276 275 274 273 273 273 273 273 273 272 270 267 264 262 260 257 253 249 247 244 240 238 236 233 229 226 225 224 221 218 217 217 218 220 221 220 219 219 218 217 216 215 216 218 219 219 220 219 217 214 213 212 214 215 213 212 211 211 210 210 209 209 210 209 206 204
274 275 276 277 278 278 277 277 276 276 275 275 274 274 273 272 270 267 265 263 262 261 258 255 252 248 245 242 239 236 235 233 228 224 223 222 220 218 216 215 216 218 220 219 218 217 217 217 216 215 215 217 219 220 221 220 218 215 213 212 214 216 214 212 211 211 210 210 209 209 209 209 207 204
276 277 279 279 280 279 278 276 276 275 275 274 273 272 270 267 265 263 262 262 260 257 253 252 251 248 243 239 236 235 234 233 228 224 221 219 218 217 216 214 215 217 218 217 216 215 216 217 216 215 214 215 217 219 220 220 217 215 213 212 213 215 215 213 211 211 210 209 209 208 209 209 208 205
278 280 281 281 281 280 278 276 274 273 272 271 269 268 266 263 262 261 260 256 253 251 250 250 252 252 245 237 233 233 233 232 229 223 219 218 216 216 215 214 214 215 216 216 215 214 214 215 215 215 215 215 216 218 219 219 217 214 212 211 212 214 216 214 212 211 210 208 208 208 208 208 208 206
281 282 283 282 280 279 276 274 271 270 268 267 266 265 263 261 261 259 254 250 248 249 251 252 255 256 246 234 229 230 231 231 228 223 218 216 215 214 214 214 214 214 214 214 214 213 212 211 212 214 215 214 215 216 216 216 216 214 211 210 211 213 215 215 213 211 210 208 208 207 208 208 207 206
283 283 281 280 277 275 272 270 268 267 266 266 265 263 262 260 258 253 248 246 247 249 251 253 257 256 243 229 225 227 229 230 227 222 218 215 214 213 213 214 213 213 212 212 213 212 209 208 210 214 213 212 213 214 214 214 214 214 212 210 210 212 214 215 214 212 209 208 207 207 208 209 207 206
282 281 279 277 274 272 270 269 268 266 266 265 264 263 261 257 251 247 245 245 245 248 251 253 256 252 237 225 222 224 226 228 227 223 218 215 212 211 212 213 213 211 210 211 211 210 207 206 209 213 212 210 209 210 211 212 213 213 212 210 209 210 213 214 213 211 210 209 207 208 209 209 208 206
280 278 276 274 273 272 271 270 268 267 266 264 262 260 258 253 248 245 244 243 244 246 249 250 251 246 232 222 221 223 224 227 227 224 219 215 212 210 210 211 212 210 209 210 210 208 206 207 209 211 210 208 207 207 208 210 211 211 211 210 208 209 212 213 211 209 209 208 207 208 209 210 209 207
277 276 275 274 272 271 270 269 268 266 265 263 260 258 255 251 248 246 244 243 244 245 245 245 243 237 226 218 219 222 223 225 227 225 221 216 212 210 210 210 210 209 207 208 208 206 205 207 208 208 208 207 206 206 208 208 209 210 210 209 208 209 211 213 211 208 206 207 207 207 209 210 209 208
276 276 275 274 272 271 269 268 266 265 264 262 261 259 256 252 249 247 245 244 244 243 242 240 235 228 219 215 217 220 222 223 225 225 223 218 212 210 209 209 209 207 205 206 206 205 206 208 208 207 207 206 206 206 207 208 208 209 209 208 208 208 210 212 212 208 206 207 206 206 208 210 210 209
278 276 275 274 272 271 270 268 267 265 264 262 261 259 257 254 251 248 246 245 243 239 237 235 230 222 216 215 216 218 219 221 223 224 224 219 213 210 209 209 208 206 204 204 204 204 205 206 206 207 206 205 205 205 205 207 208 208 209 209 207 207 209 211 211 208 206 208 207 207 208 209 209 210
277 276 275 274 273 272 271 270 268 266 264 262 260 257 255 253 251 250 247 244 240 237 234 232 228 222 218 217 217 218 218 220 221 223 224 220 214 210 209 208 207 205 203 203 203 204 205 205 206 206 204 203 204 205 204 204 205 206 209 209 207 207 208 209 209 207 206 207 207 207 208 208 209 210
277 276 276 275 275 274 272 270 269 266 264 262 259 256 254 252 250 249 247 244 240 235 231 229 227 224 222 220 219 219 219 219 220 222 224 221 215 211 209 207 206 204 203 202 203 205 206 205 206 206 202 200 202 204 204 203 202 203 207 208 207 207 208 208 208 206 205 206 207 207 208 208 208 210
278 277 277 276 275 274 272 270 268 265 263 260 258 255 253 251 249 248 245 243 240 235 231 229 226 226 226 224 222 221 220 219 220 222 224 222 216 212 209 207 205 204 202 201 202 205 205 205 206 206 201 198 200 202 203 202 200 202 207 207 205 205 207 208 207 205 204 205 207 207 207 206 206 209
278 277 276 275 273 271 269 267 265 263 261 259 257 254 252 249 247 246 244 242 240 237 235 232 229 227 227 226 224 223 221 220 221 222 224 223 218 212 209 206 204 203 201 201 202 205 206 206 207 206 200 197 199 201 203 202 200 201 206 208 205 204 205 206 208 207 205 205 206 207 207 206 205 208
277 276 275 273 272 270 268 267 265 263 261 259 256 254 252 249 246 244 243 241 239 238 236 235 232 229 227 226 225 224 221 221 222 222 224 224 219 213 209 206 203 201 201 200 202 204 206 206 207 206 201 198 199 200 201 202 201 202 206 209 208 206 204 204 207 209 208 207 208 208 208 207 206 208
277 276 274 273 272 271 270 268 267 265 262 260 257 255 252 249 246 243 241 239 238 237 236 235 233 230 227 226 225 224 221 220 221 222 223 222 218 213 208 205 202 200 200 201 202 204 205 206 206 205 200 198 200 200 200 201 202 203 205 207 208 208 207 205 205 206 207 209 210 210 210 210 209 210
279 277 275 273 271 270 269 267 265 264 262 260 258 255 252 248 245 243 240 238 236 236 235 234 232 230 227 225 224 223 220 218 219 220 220 220 217 212 208 204 200 199 200 201 201 203 205 204 203 201 199 198 200 200 199 201 203 205 206 206 206 208 210 208 207 206 206 208 210 211 212 213 213 213
284 281 279 276 272 270 269 267 266 263 261 259 257 255 252 248 243 240 238 236 234 233 233 232 230 229 227 224 222 220 217 216 217 217 217 217 215 211 207 203 199 198 200 201 201 203 204 202 199 198 197 197 198 199 199 200 204 207 208 208 207 208 209 209 210 209 209 209 209 210 211 213 214 215
287 284 280 277 275 274 272 271 269 267 264 259 255 252 250 246 241 237 235 233 231 229 229 229 228 227 225 221 218 216 214 213 214 213 213 213 212 208 205 202 198 198 200 200 201 203 203 200 196 195 194 195 198 199 199 201 205 208 209 210 210 210 210 209 209 210 210 211 211 211 212 213 214 216
288 285 283 282 281 280 277 275 272 269 266 261 254 248 245 243 239 234 231 229 227 226 225 225 224 223 222 218 214 212 210 210 211 210 210 211 209 206 204 201 197 197 199 200 201 202 201 196 193 190 190 193 198 200 200 202 206 209 210 210 211 213 213 212 211 210 210 210 212 214 215 216 217 219
291 292 292 291 289 286 283 278 273 270 267 262 255 248 243 240 236 231 227 225 224 222 221 221 221 220 217 213 210 208 207 208 208 207 208 208 206 203 201 199 196 196 198 200 201 201 198 193 190 189 190 193 197 199 200 202 204 206 209 210 209 211 212 212 213 213 212 211 213 214 215 217 219 222
296 297 297 294 291 289 285 280 275 270 266 261 255 250 244 238 233 228 222 220 221 220 218 217 217 216 212 209 207 205 205 206 206 205 206 205 202 200 199 198 196 195 197 200 201 199 196 193 191 192 193 195 195 196 200 202 201 203 207 208 208 209 210 210 211 212 213 213 214 215 215 217 219 221
299 300 298 296 295 294 292 289 282 275 270 264 257 250 244 236 229 223 217 215 216 216 214 213 212 211 208 205 203 202 202 203 203 204 204 202 199 197 197 196 195 195 197 199 200 198 196 196 194 193 194 194 194 196 199 202 201 202 204 206 207 208 209 209 210 211 212 213 215 216 217 219 221 222
301 301 302 305 305 303 301 298 291 284 279 272 259 248 238 229 222 217 212 210 211 212 210 208 208 206 204 202 200 199 200 201 201 202 202 199 195 195 195 195 194 194 196 198 199 198 196 195 193 190 190 191 193 195 198 200 202 203 204 205 206 207 209 210 210 210 211 212 214 217 219 220 221 221
304 307 313 316 313 309 306 302 296 290 284 272 256 242 229 219 214 211 207 205 207 208 206 204 203 202 200 198 197 197 197 198 199 200 199 195 193 193 194 193 193 193 195 198 198 197 194 191 190 190 189 190 192 194 196 199 201 202 204 205 206 207 209 209 209 210 211 212 214 216 218 220 221 222
305 312 320 323 319 315 313 307 300 293 284 266 248 230 215 207 205 204 202 201 202 204 202 199 198 198 196 195 194 195 195 196 197 197 194 191 190 192 193 192 191 192 195 197 198 196 194 191 192 191 189 189 191 194 196 198 199 200 203 205 207 208 209 209 209 210 211 213 214 215 216 218 219 221